Caldwell, NJ

2:29 AM EDT on May 25, 2017 (GMT -0400)
Essex County

Weather History for KCDW - June, 2014

Change the Weather History Date:

Wednesday, June 25, 2014

  Actual Average Record
Temperature  
Mean Temperature 78 °F -  
Max Temperature 88 °F 81 °F 93 °F (1997)
Min Temperature 68 °F 58 °F 47 °F (1982)
Cooling Degree Days 12    
Growing Degree Days 28 (Base 50)    
Moisture  
Dew Point 68 °F    
Average Humidity 79    
Maximum Humidity 100    
Minimum Humidity 55    
Precipitation  
Precipitation 0.57 in - - ()
Sea Level Pressure  
Sea Level Pressure 29.94 in    
Wind  
Wind Speed 3 mph (SSW)    
Max Wind Speed 15 mph    
Max Gust Speed 20 mph    
Visibility 8 miles    
Events Rain    
Averages and records for this station are not official NWS values.
T = Trace of Precipitation, MM = Missing Value Source: NWS Daily Summary

Daily Weather History Graph

Daily Weather History Graph

Search for Another Location

Airport or City:

Trip Planner

Search our weather history database for the weather conditions in past years. The results will help you decide how hot, cold, wet, or windy it might be!

Date:

Astronomy

Jun. 25, 2014 Rise Set
Actual Time 5:26 AM EDT 8:32 PM EDT
Civil Twilight 4:53 AM EDT 9:06 PM EDT
Nautical Twilight 4:10 AM EDT 9:49 PM EDT
Astronomical Twilight 3:19 AM EDT 10:39 PM EDT
Moon 4:16 AM EDT 7:02 PM EDT
Length of Visible Light 16h 13m
Length of Day
15h 06m
Waning Crescent, 3% of the Moon is Illuminated
Jun 25
Waning Crescent
Jun 27
New
Jul 5
First Quarter
Jul 12
Full
Jul 18
Last Quarter

Hourly Weather History & Observations

Time (EDT) Temp. Heat Index Dew Point Humidity Pressure Visibility Wind Dir Wind Speed Gust Speed Precip Events Conditions
12:53 AM 70.0 °F - 60.1 °F 71% 30.04 in 10.0 mi Calm Calm - N/A   Clear
1:53 AM 69.1 °F - 61.0 °F 75% 30.03 in 10.0 mi Calm Calm - N/A   Clear
2:53 AM 68.0 °F - 63.0 °F 84% 30.02 in 10.0 mi Calm Calm - N/A   Clear
3:49 AM 68.0 °F - 64.4 °F 88% 30.01 in 10.0 mi Calm Calm - N/A   Mostly Cloudy
3:53 AM 68.0 °F - 64.9 °F 90% 30.02 in 10.0 mi Calm Calm - N/A   Mostly Cloudy
4:53 AM 69.1 °F - 66.0 °F 90% 30.01 in 10.0 mi Variable 3.5 mph - N/A   Overcast
5:12 AM 69.8 °F - 66.2 °F 88% 30.00 in 10.0 mi Variable 3.5 mph - N/A   Overcast
5:53 AM 70.0 °F - 66.9 °F 90% 30.01 in 10.0 mi Calm Calm - N/A   Overcast
6:53 AM 68.0 °F - 64.9 °F 90% 30.02 in 4.0 mi Calm Calm - N/A   Overcast
7:37 AM 69.8 °F - 66.2 °F 88% 30.00 in 10.0 mi Calm Calm - N/A   Overcast
7:53 AM 70.0 °F - 68.0 °F 93% 30.01 in 7.0 mi Calm Calm - N/A   Overcast
8:53 AM 72.0 °F - 68.0 °F 87% 30.01 in 10.0 mi West 3.5 mph - N/A   Overcast
9:53 AM 75.0 °F - 69.1 °F 82% 30.00 in 10.0 mi Calm Calm - N/A   Overcast
10:53 AM 79.0 °F - 69.1 °F 72% 29.99 in 10.0 mi SW 5.8 mph - N/A   Mostly Cloudy
11:53 AM 80.1 °F 83.2 °F 70.0 °F 71% 29.97 in 10.0 mi Variable 5.8 mph - N/A   Mostly Cloudy
12:53 PM 82.0 °F 85.5 °F 69.1 °F 65% 29.95 in 10.0 mi Variable 4.6 mph - N/A   Mostly Cloudy
1:12 PM 82.4 °F 86.3 °F 69.8 °F 66% 29.93 in 10.0 mi Variable 5.8 mph - N/A   Mostly Cloudy
1:53 PM 84.9 °F 88.8 °F 69.1 °F 59% 29.92 in 10.0 mi SSW 6.9 mph - N/A   Mostly Cloudy
2:00 PM 86.0 °F 89.4 °F 68.0 °F 55% 29.90 in 10.0 mi SSW 8.1 mph 17.3 mph N/A   Scattered Clouds
2:53 PM 87.1 °F 91.3 °F 69.1 °F 55% 29.89 in 10.0 mi SE 10.4 mph - N/A   Scattered Clouds
4:53 PM 84.9 °F 90.1 °F 71.1 °F 63% 29.86 in 10.0 mi South 13.8 mph 19.6 mph N/A   Clear
5:53 PM 84.0 °F 89.0 °F 71.1 °F 65% 29.84 in 10.0 mi South 10.4 mph 18.4 mph N/A   Clear
6:53 PM 82.9 °F 88.0 °F 72.0 °F 69% 29.84 in 10.0 mi SSW 9.2 mph - N/A   Mostly Cloudy
7:53 PM 82.0 °F 85.9 °F 70.0 °F 67% 29.85 in 10.0 mi SW 6.9 mph - N/A   Overcast
10:53 PM 78.1 °F - 71.1 °F 79% 29.87 in 5.0 mi WNW 15.0 mph 19.6 mph 0.03 in Rain Light Rain
11:03 PM 71.6 °F - 69.8 °F 94% 29.85 in 1.0 mi Variable 5.8 mph 16.1 mph 0.29 in Rain Heavy Rain
11:10 PM 71.6 °F - 69.8 °F 94% 29.85 in 3.0 mi Calm Calm - 0.30 in Rain Light Rain
11:25 PM 71.6 °F - 69.8 °F 94% 29.88 in 1.8 mi SSW 5.8 mph - 0.40 in Rain Heavy Rain
11:41 PM 71.6 °F - 69.8 °F 94% 29.86 in 3.0 mi South 5.8 mph - 0.52 in Rain Rain
11:53 PM 70.0 °F - 70.0 °F 100% 29.87 in 5.0 mi SSW 5.8 mph - 0.54 in Rain Light Rain